YAOGAN-36 01C (53947 NORAD) Tracking and Keplerian Element Data

This shows tracking and keplerian element data for the satellite.

Feedback or suggestion? Click here.




ElementValue
Catalog53947
NameYAOGAN-36 01C
Epoch Orbit842
Epoch Day324.72503588
Epoch Year2022
RAAN198.1603
Inclination34.9976
Eccentricity0.0005924
Argument of Perigee158.183
Mean Anonmoly247.878
Mean Motion15.22804528
Decay Rate0.00015923
L11 53947U 22120E 22324.72503588 .00015923 00000+0 66464-3 0 9994
L22 53947 34.9976 198.1603 0005924 158.1830 247.8780 15.22804528 8429



Live tracking and technical data element details for YAOGAN-36 01C (NORAD 53947). YAOGAN-36 01C can be tracked NOW for your location showing map with azimuth and elevation plus other details from your city location.







IsCatalogInMostPopularTable: catalog: 53947, numindb: 2
Update: records affected: 1



GetName: 53947 YAOGAN-36 01C

Hit Count: updated at: Thu, 08 Dec 2022 09:46:52 GMT